Lexington Weather

Lexington, Massachusetts, USA

36°F
1/27/2020 7:08am 
  • Lexington Conditions: Overcast
  • Temperature: 36.1°F / 2.3°CWarmer 0.3°F than last hour.
  • Dew Point: 31.1°F 
  • Relative Humidity: 82%Decreased 1.0% since last hour.
  • Wind: Wind from SW SW 2 mph, 10-min avg: 2 mph, gust: 7 mph
  • Barometer: 29.57 in Steady
  • Visibility: 10 miles
  • Rain Today: 0.00 in
  •   

Regional Weather Roundup
for Boston / Norton, MA

        
000
ASUS41 KBOX 250500
RWRBOX

REGIONAL WEATHER ROUNDUP
NATIONAL WEATHER SERVICE BOSTON/NORTON MA
1200 AM EST SAT JAN 25 2020

NOTE:  "FAIR" INDICATES FEW OR NO CLOUDS BELOW 12,000 FEET WITH NO 
SIGNIFICANT WEATHER AND/OR OBSTRUCTIONS TO VISIBILITY.

MAZALL-250600-
EASTERN MASSACHUSETTS
  
CITY           SKY/WX    TMP DP  RH WIND       PRES   REMARKS
BOSTON         CLOUDY    41  33  73 E12       30.38F                  
BEVERLY        CLOUDY    38  32  79 NE3       30.38F                  
LAWRENCE       CLOUDY    34  32  92 CALM      30.40F                  
BEDFORD        CLOUDY    34  31  88 CALM      30.37F                  
BLUE HILL        N/A     37  32  82 E10       30.34F WCI  30          
NORWOOD        CLOUDY    34  29  82 CALM      30.37F                  
MARSHFIELD     NOT AVBL                                               
PLYMOUTH       FAIR      31  31 100 NE3       30.36F                  
TAUNTON        MOCLDY    27  25  92 CALM      30.36F                  
NEW BEDFORD    FAIR      33  31  92 NE3       30.35F                  
$$

MAZALL-250600-
CAPE COD AND THE ISLANDS
  
CITY           SKY/WX    TMP DP  RH WIND       PRES   REMARKS
FALMOUTH       MOCLDY    34  32  93 E9        30.36F WCI  26          
HYANNIS        NOT AVBL                                               
CHATHAM        CLOUDY    41  36  82 E8        30.38S                  
PROVINCETOWN   MOCLDY    38  36  92 E6        30.38F                  
NANTUCKET      FAIR      38  35  89 E6        30.35S                  
MARTHAS VNYRD  CLOUDY    36  34  92 E7        30.35S WCI  30          
$$
 
MAZALL-250600-
CENTRAL AND WESTERN MASSACHUSETTS
  
CITY           SKY/WX    TMP DP  RH WIND       PRES   REMARKS
WORCESTER      CLOUDY    34  31  88 NE10      30.32F WCI  26          
FITCHBURG      CLOUDY    36  32  85 VRB3      30.37F                  
ORANGE         CLOUDY    29  26  89 CALM      30.35F                  
SPRINGFIELD    MOCLDY    27  26  93 CALM      30.33F                  
WESTFIELD      CLOUDY    34  27  75 NE3       30.34F                  
NORTH ADAMS    FAIR      35  26  69 E14       30.32S WCI  26          
PITTSFIELD     MOCLDY    33  27  78 E9        30.27F WCI  25          
$$
 
RIZALL-250600-
RHODE ISLAND
  
CITY           SKY/WX    TMP DP  RH WIND       PRES   REMARKS
PROVIDENCE     MOCLDY    35  34  96 NE7       30.35F FOG     WCI  29  
NEWPORT        FAIR      35  31  85 NE5       30.33F WCI  31          
BLOCK ISLAND   CLOUDY    39  36  89 E12G18    30.31F WCI  32          
SMITHFIELD     CLOUDY    34  33  96 NE5       30.35F FOG     WCI  30  
WESTERLY       FAIR      37  32  82 NE6       30.32F                  
$$
 
CTZALL-250600-
CONNECTICUT
  
CITY           SKY/WX    TMP DP  RH WIND       PRES   REMARKS
BRADLEY INTL   MOCLDY    32  28  85 NE6       30.33F WCI  26          
HARTFORD       CLOUDY    36  31  82 NE6       30.34S WCI  31          
BRIDGEPORT     FAIR      38  32  79 NE13      30.30F WCI  30          
DANBURY        FAIR      33  25  72 NE6       30.29F WCI  28          
GROTON         NOT AVBL                                               
NEW HAVEN      FAIR      38  33  82 NE6       30.30F                  
CHESTER        NOT AVBL                                               
MERIDEN        FAIR      35  30  82 NE5       30.32F WCI  31          
WILLIMANTIC    CLOUDY    36  33  89 NE3       30.34F                  
OXFORD         FAIR      34  31  88 NE14      30.28F WCI  25          
$$

MEZ002-015-021-024-NHZ003-005-008-011-012-014-VTZ005-008-250600-
NORTHERN NEW ENGLAND
  
CITY           SKY/WX    TMP DP  RH WIND       PRES   REMARKS
PORTLAND ME    CLOUDY    37  31  78 NE7       30.43F WCI  32          
BANGOR ME      FAIR      17  15  92 CALM      30.47S                  
CONCORD NH     CLOUDY    34  30  85 CALM      30.39F                  
MANCHESTER NH  CLOUDY    36  32  85 N6        30.37F WCI  31          
NASHUA NH      CLOUDY    36  35  96 N3        30.39F                  
PORTSMOUTH NH  NOT AVBL                                               
JAFFREY NH     CLOUDY    35  30  82 CALM      30.34F                  
KEENE NH       FAIR      23  22  96 CALM      30.36F FOG              
BURLINGTON VT  FAIR      24  17  74 S5        30.29S WCI  18          
MT. WASHINGTON NOT AVBL                                               
$$

NYZ052-076-250600-
EASTERN NEW YORK
  
CITY           SKY/WX    TMP DP  RH WIND       PRES   REMARKS
ALBANY         FAIR      25  17  72 E3        30.30S                  
NEW YORK CITY  MOCLDY    38  31  76 NE8       30.27F                  
$$
 
ANZALL-250600-
MARINE OBSERVATIONS
  
STATION/POSITION TIME  TEMP    WIND        PRES    VSBY  WAVE
                       AIR SEA DIR/SP/G                  HT/PER
                 (UTC) (F)     (DEG/KT/KT) (MB)    (MI)  (FT/S)
BOSTON BUOY      0350   42 43   90/  8/ 10 1028.3          3/11
BUZZARDS BAY     0400   39      60/ 11/ 12 1028.5F
NANTUCKET SOUND  0440                        N/A
MASS BAY-STELLWA 0404   41 41  110/ 10/ 12 1027.1F  1 7/8  4/11
ISLE OF SHOALS   0400   41      80/ 10/ 11 1029.3F
S OF BLOCK IS    0430      45                N/A           4/10
$$

......................KEY.........................
  SKY/WX - SKY CONDITION/PRESENT WEATHER
  TMP    - TEMPERATURE IN FAHRENHEIT
  DWPT   - DEWPOINT IN FAHRENHEIT
  RH     - RELATIVE HUMIDITY IN PERCENT
  WIND   - DIRECTION AND SPEED IN MPH
  PRES   - MEAN SEA LEVEL PRESSURE IN INCHES OF HG
  WCI    - WIND CHILL INDEX
  VSB    - VISIBILITY IN MILES
  HX     - HEAT INDEX
  TC     - TEMPERATURE IN CELSIUS
  VRB    - VARIABLE WIND DIRECTION
  N/A    - NOT AVAILABLE
  
      

Other recent Regional Weather Roundups

Mon Jan 27, 7:00am

Mon Jan 27, 6:10am

Mon Jan 27, 6:00am

Mon Jan 27, 5:10am

Mon Jan 27, 5:00am

Mon Jan 27, 4:10am

Mon Jan 27, 4:01am

Mon Jan 27, 3:10am

Mon Jan 27, 3:00am

Mon Jan 27, 2:10am

Mon Jan 27, 2:00am

Mon Jan 27, 1:10am

Mon Jan 27, 1:00am

Mon Jan 27, 12:10am

Mon Jan 27, 12:00am

Sun Jan 26, 11:10pm

Sun Jan 26, 11:00pm

Sun Jan 26, 10:10pm

Sun Jan 26, 10:00pm

Sun Jan 26, 9:10pm

Sun Jan 26, 9:01pm

Sun Jan 26, 8:10pm

Sun Jan 26, 8:00pm

Sun Jan 26, 7:10pm

Sun Jan 26, 7:00pm

Sun Jan 26, 6:10pm

Sun Jan 26, 6:01pm

Sun Jan 26, 5:10pm

Sun Jan 26, 5:01pm

Sun Jan 26, 4:10pm

Sun Jan 26, 4:00pm

Sun Jan 26, 3:10pm

Sun Jan 26, 3:01pm

Sun Jan 26, 2:10pm

Sun Jan 26, 2:01pm

Sun Jan 26, 1:10pm

Sun Jan 26, 1:00pm

Sun Jan 26, 12:10pm

Sun Jan 26, 12:00pm

Sun Jan 26, 11:10am

Sun Jan 26, 11:01am

Sun Jan 26, 10:10am

Sun Jan 26, 10:01am

Sun Jan 26, 9:10am

Sun Jan 26, 9:00am

Sun Jan 26, 8:10am

Sun Jan 26, 8:00am

Sun Jan 26, 7:10am

Sun Jan 26, 7:00am

Sun Jan 26, 6:10am

Sun Jan 26, 6:00am

Sun Jan 26, 5:10am

Sun Jan 26, 5:00am

Sun Jan 26, 4:10am

Sun Jan 26, 4:01am

Sun Jan 26, 3:10am

Sun Jan 26, 3:01am

Sun Jan 26, 2:10am

Sun Jan 26, 2:00am

Sun Jan 26, 1:10am

Sun Jan 26, 1:00am

Sun Jan 26, 12:10am

Sun Jan 26, 12:00am

Sat Jan 25, 11:10pm

Sat Jan 25, 11:00pm

Sat Jan 25, 10:10pm

Sat Jan 25, 10:01pm

Sat Jan 25, 9:10pm

Sat Jan 25, 9:01pm

Sat Jan 25, 8:10pm

Sat Jan 25, 8:01pm

Sat Jan 25, 7:10pm

Sat Jan 25, 7:01pm

Sat Jan 25, 6:10pm

Sat Jan 25, 6:01pm

Sat Jan 25, 5:10pm

Sat Jan 25, 5:01pm

Sat Jan 25, 4:10pm

Sat Jan 25, 4:00pm

Sat Jan 25, 3:10pm

Sat Jan 25, 3:01pm

Sat Jan 25, 2:10pm

Sat Jan 25, 2:00pm

Sat Jan 25, 1:10pm

Sat Jan 25, 1:00pm

Sat Jan 25, 12:10pm

Sat Jan 25, 12:00pm

Sat Jan 25, 11:10am

Sat Jan 25, 11:00am

Sat Jan 25, 10:10am

Sat Jan 25, 10:00am

Sat Jan 25, 9:10am

Sat Jan 25, 9:00am

Sat Jan 25, 8:10am

Sat Jan 25, 8:01am

Sat Jan 25, 7:10am

Sat Jan 25, 7:00am

Sat Jan 25, 6:10am

Sat Jan 25, 6:00am

Sat Jan 25, 5:10am

Sat Jan 25, 5:00am

Sat Jan 25, 4:10am

Sat Jan 25, 4:00am

Sat Jan 25, 3:10am

Sat Jan 25, 3:00am

Sat Jan 25, 2:10am

Sat Jan 25, 2:01am

Sat Jan 25, 1:10am

Sat Jan 25, 1:00am

Sat Jan 25, 12:10am

Fri Jan 24, 11:10pm

Fri Jan 24, 11:00pm

Fri Jan 24, 10:10pm

Fri Jan 24, 10:00pm

Fri Jan 24, 9:10pm

Fri Jan 24, 9:00pm

Fri Jan 24, 8:10pm

Fri Jan 24, 8:01pm

Fri Jan 24, 7:10pm

Fri Jan 24, 7:00pm

Fri Jan 24, 6:10pm

Fri Jan 24, 6:01pm

Fri Jan 24, 5:10pm

Fri Jan 24, 5:01pm

Fri Jan 24, 4:10pm

Fri Jan 24, 4:00pm

Fri Jan 24, 3:10pm

Fri Jan 24, 3:00pm

Fri Jan 24, 2:10pm

Fri Jan 24, 2:01pm

Fri Jan 24, 1:10pm

Fri Jan 24, 1:00pm

Fri Jan 24, 12:10pm

Fri Jan 24, 12:01pm

Fri Jan 24, 11:10am

Fri Jan 24, 11:01am

Fri Jan 24, 10:10am

Fri Jan 24, 10:00am

Fri Jan 24, 9:10am

Fri Jan 24, 9:00am

Fri Jan 24, 8:10am

Fri Jan 24, 8:01am

Fri Jan 24, 7:10am

Meta data:

ID: ac12efa0-886c-438f-8126-1733d893a128
Link: https://api.weather.gov/products/ac12efa0-886c-438f-8126-1733d893a128